Terminal Aerodrome Forecast
Issued by NWS

Home | Current Version | Previous Version | Text Only | Print | Product List | Glossary On
Versions: 1 2 3 4 5 6 7 8 9 10 11 12
000
FTUS46 KHNX 300500
TAFFAT
TAF
KFAT 300527Z 3006/3106 30010KT P6SM SCT130 BKN200
     FM301000 VRB04KT P6SM SCT120
     FM301600 30009KT P6SM SCT200=

USA.gov is the U.S. government's official web portal to all federal, state and local government web resources and services.